User: anonymous   Login
Location: Unspecified
(0.0000°N, 0.0000°E)
Time: 06:43:05
(UTC+00:00)
Language:

AIST 2 - Orbit

View from above orbital plane
View from above orbital plane
View from above satellite
View from above satellite

Ground track
Ground track

The orbit data is extracted from the following two-line orbital elements,

1 39133U 13015D   17087.92420314 +.00000510 +00000-0 +48794-4 0  9999
2 39133 064.8737 179.1978 0033895 296.0145 063.7485 15.04217120215838
Epoch (UTC): 28 March 2017 22:10:51
Eccentricity: 0.0033895
inclination: 64.8737°
perigee height: 530 km
apogee height: 577 km
right ascension of ascending node: 179.1978°
argument of perigee: 296.0145°
revolutions per day: 15.04217120
mean anomaly at epoch: 63.7485°
orbit number at epoch: 21583

The dashed part of the orbit path shows where the satellite is in the earth's shadow,  

DLR